User: anonymous   Login
Location: Unspecified
(0.0000°N, 0.0000°E)
Time: 08:39:00
(UTC+00:00)
Language:

SPACECUBE (2U) - Orbit

View from above orbital plane
View from above orbital plane
View from above satellite
View from above satellite

Ground track
Ground track

The orbit data is extracted from the following two-line orbital elements,

1 42717U 98067LY  18267.87336633 +.00048747 +00000-0 +29661-3 0  9991
2 42717 051.6265 204.0806 0000346 208.3744 151.7237 15.76957287076645
Epoch (UTC): 24 September 2018 20:57:38
Eccentricity: 0.0000346
inclination: 51.6265°
perigee height: 339 km
apogee height: 339 km
right ascension of ascending node: 204.0806°
argument of perigee: 208.3744°
revolutions per day: 15.76957287
mean anomaly at epoch: 151.7237°
orbit number at epoch: 7664

The dashed part of the orbit path shows where the satellite is in the earth's shadow,  

DLR